User: anonymous   Login
Location: Fort Hays State University
(38.8712°N, 99.3432°W)
Time: 19:26:18
(UTC-06:00)
Language:

Cosmos 2279 Rocket - Orbit

View from above orbital plane
View from above orbital plane
View from above satellite
View from above satellite

Ground track
Ground track

The orbit data is extracted from the following two-line orbital elements,

1 23093U 94024B   14328.86771730  .00000083  00000-0  67807-4 0  9390
2 23093 082.9480 090.0760 0011452 106.4882 253.7534 13.77635906502658
Epoch (UTC): 24 November 2014 20:49:30
Eccentricity: 0.0011452
inclination: 82.9480°
perigee height: 964 km
apogee height: 981 km
right ascension of ascending node: 90.0760°
argument of perigee: 106.4882°
revolutions per day: 13.77635906
mean anomaly at epoch: 253.7534°
orbit number at epoch: 50265

The dashed part of the orbit path shows where the satellite is in the earth's shadow,  

DLR